Date,TemperatureHighF,TemperatureAvgF,TemperatureLowF,DewpointHighF,DewpointAvgF,DewpointLowF,HumidityHigh,HumidityAvg,HumidityLow,PressureMaxIn,PressureMinIn,WindSpeedMaxMPH,WindSpeedAvgMPH,GustSpeedMaxMPH,PrecipitationSumIn
2013-1-1,77.9,72.7,63.4,65.5,61.8,59.0,89,69,60,30.19,30.05,10,3,14,0.00
2013-1-2,78.4,70.3,60.9,69.1,65.1,59.1,97,84,70,30.09,29.98,8,1,10,0.00
2013-1-3,79.6,73.4,66.3,71.1,68.0,64.5,95,84,70,30.12,30.02,9,1,11,0.00
2013-1-4,82.1,72.6,65.1,73.8,68.8,63.4,97,88,73,30.21,30.09,4,1,9,0.00
2013-1-5,78.3,70.6,66.0,73.1,67.8,64.5,97,91,78,30.24,30.15,5,1,8,0.09
2013-1-6,80.0,75.5,65.7,73.0,70.6,64.2,97,85,76,30.18,30.06,9,2,13,0.00
2013-1-7,79.5,72.0,67.4,72.2,68.7,66.2,96,90,70,30.16,30.06,5,1,11,0.08
2013-1-8,80.8,77.0,72.8,74.0,72.0,69.7,93,85,78,30.19,30.06,11,3,13,0.17
2013-1-9,80.9,77.8,76.0,73.4,71.6,69.3,88,81,76,30.27,30.15,13,4,15,0.00
2013-1-10,79.8,77.0,75.1,70.5,68.0,64.5,81,74,60,30.29,30.17,13,4,15,0.00
2013-1-11,80.3,76.5,74.0,71.3,68.9,67.1,87,77,70,30.25,30.14,11,4,14,0.01
2013-1-12,79.8,75.9,73.3,70.6,68.1,65.0,83,77,69,30.18,30.08,8,2,12,0.00
2013-1-13,79.2,75.8,73.9,69.0,66.7,63.9,83,74,65,30.12,30.06,10,4,14,0.00
2013-1-14,78.8,75.4,73.1,67.9,65.3,62.3,78,71,65,30.17,30.11,13,3,13,0.00
2013-1-15,78.3,75.2,72.9,69.3,67.3,63.7,84,77,70,30.13,30.04,8,2,11,0.01
2013-1-16,79.5,75.8,71.5,71.6,68.2,62.3,92,78,69,30.10,30.01,9,3,13,0.04
2013-1-17,78.8,71.0,60.4,72.5,67.0,54.9,97,87,76,30.08,29.97,11,2,18,0.19
2013-1-18,70.7,63.9,53.3,62.0,54.9,46.8,83,73,61,30.23,30.08,9,2,13,0.00
2013-1-19,71.7,68.6,63.9,68.2,64.6,58.7,96,88,66,30.21,30.08,6,1,10,0.37
2013-1-20,79.9,70.7,63.3,71.4,67.0,62.1,98,89,72,30.14,30.01,7,1,9,0.09
2013-1-21,79.2,70.9,65.8,71.7,68.0,64.1,97,91,75,30.06,29.96,7,1,8,0.23
2013-1-22,77.5,68.8,62.1,65.1,60.7,55.1,96,77,60,30.20,30.00,11,3,17,0.01
2013-1-23,76.3,69.1,60.3,60.4,56.3,52.4,84,64,53,30.28,30.18,11,2,15,0.00
2013-1-24,76.9,65.7,57.3,60.0,55.1,52.0,89,70,50,30.29,30.19,7,1,11,0.00
2013-1-25,78.0,66.6,55.9,64.4,56.8,50.6,86,72,54,30.28,30.17,7,1,10,0.00
2013-1-26,79.4,68.4,58.2,64.0,59.9,54.4,94,76,56,30.25,30.16,10,1,11,0.00
2013-1-27,79.3,72.7,63.7,66.1,63.2,59.9,88,73,57,30.27,30.19,7,1,12,0.00
2013-1-28,79.1,75.2,72.2,67.7,65.3,62.6,79,72,64,30.31,30.22,9,3,12,0.00
2013-1-29,77.9,74.9,73.5,70.2,67.7,65.2,82,78,74,30.23,30.12,10,4,13,0.00
2013-1-30,78.3,74.9,72.6,69.5,67.1,64.2,87,77,69,30.12,29.96,12,4,17,0.00
2013-1-31,74.5,68.2,59.2,71.6,60.5,41.5,94,77,50,30.17,29.94,6,2,13,0.00
2013-2-1,76.5,64.1,52.7,59.9,50.4,40.4,74,61,51,30.26,30.15,12,3,15,0.00
2013-2-2,75.2,64.8,55.9,56.4,51.1,38.0,82,62,47,30.26,30.11,8,1,10,0.00
2013-2-3,78.0,63.5,52.8,58.0,51.4,44.6,91,67,38,30.16,30.06,10,1,12,0.00
2013-2-4,75.2,62.1,49.3,56.7,49.5,40.2,84,65,37,30.14,30.02,7,1,9,0.00
2013-2-5,76.2,66.9,54.0,64.7,59.0,51.4,95,77,59,30.08,30.00,8,1,11,0.00
2013-2-6,79.1,70.5,60.5,69.9,63.6,58.8,97,80,66,30.10,30.01,9,1,10,0.00
2013-2-7,78.5,74.5,69.8,68.0,65.5,63.1,83,74,66,30.07,29.94,9,3,12,0.00
2013-2-8,86.1,75.4,69.4,72.6,68.8,64.5,95,81,58,30.02,29.90,5,1,11,0.00
2013-2-9,80.3,71.4,63.4,69.6,64.2,59.7,96,79,66,30.16,30.00,8,1,13,0.00
2013-2-10,74.2,72.2,69.1,65.4,62.9,57.6,87,73,63,30.25,30.14,14,3,15,0.08
2013-2-11,77.4,73.8,71.4,67.7,64.8,61.2,78,74,68,30.22,30.11,10,4,14,0.00
2013-2-12,80.0,75.1,70.1,70.8,68.3,65.7,91,80,70,30.11,29.97,10,3,16,0.00
2013-2-13,80.9,75.9,70.0,74.1,71.1,67.6,94,85,77,30.00,29.89,13,3,16,0.00
2013-2-14,81.5,72.4,63.5,75.0,69.0,62.0,96,89,76,30.00,29.84,13,2,14,0.90
2013-2-15,72.8,67.3,63.8,68.5,65.4,62.6,97,94,85,30.01,29.93,8,1,10,0.79
2013-2-16,76.0,65.8,54.9,66.3,58.0,46.0,97,78,46,30.08,29.87,9,2,15,0.01
2013-2-17,62.9,52.9,44.5,46.0,32.5,22.1,74,48,26,30.30,30.07,14,3,18,0.00
2013-2-18,69.6,60.0,46.7,57.8,47.2,35.4,73,63,49,30.32,30.20,10,3,14,0.00
2013-2-19,75.9,71.9,68.7,67.0,62.4,55.0,87,72,61,30.20,30.08,12,4,17,0.00
2013-2-20,80.4,70.8,64.7,69.7,65.1,59.9,95,83,59,30.11,30.01,8,1,11,0.00
2013-2-21,78.7,74.8,71.1,69.7,67.1,63.8,86,77,68,30.09,29.99,10,3,10,0.00
2013-2-22,80.2,76.1,73.5,72.9,70.6,67.5,88,83,77,30.10,30.01,13,5,15,0.00
2013-2-23,80.7,76.7,73.8,73.7,71.4,68.6,91,84,77,30.04,29.92,11,4,15,0.00
2013-2-24,83.7,76.3,71.4,75.3,72.3,68.4,97,88,67,29.99,29.89,10,2,12,0.00
2013-2-25,81.5,75.5,67.7,75.1,71.4,66.0,97,87,79,29.91,29.81,13,2,16,0.00
2013-2-26,82.1,78.7,75.9,74.8,72.6,70.8,89,82,70,29.89,29.79,11,4,19,0.00
2013-2-27,79.0,71.3,65.5,73.4,67.3,63.5,95,88,62,29.96,29.85,5,1,8,0.13
2013-2-28,72.0,65.1,60.2,64.3,55.8,47.6,95,73,45,30.00,29.89,6,1,10,0.01
2013-3-1,67.0,62.6,58.4,58.1,53.2,48.4,89,71,61,29.98,29.90,8,1,12,0.01
2013-3-2,68.5,58.7,51.8,49.4,43.9,38.6,72,59,42,30.03,29.95,13,2,18,0.00
2013-3-3,66.0,55.8,49.9,47.9,44.0,41.4,85,66,44,30.15,29.96,8,1,14,0.01
2013-3-4,67.3,54.8,42.3,46.5,40.0,34.7,75,59,34,30.22,30.12,10,2,15,0.00
2013-3-5,72.3,62.2,48.0,58.7,53.0,43.4,94,73,56,30.18,30.08,9,2,13,0.00
2013-3-6,80.0,66.0,52.9,67.2,52.6,27.2,92,66,25,30.10,29.94,9,2,14,0.02
2013-3-7,72.4,59.4,46.9,54.6,45.8,36.1,87,62,38,30.18,30.07,7,2,11,0.00
2013-3-8,75.6,63.6,51.9,57.5,52.9,47.9,91,70,43,30.20,30.10,8,1,10,0.00
2013-3-9,77.8,65.5,54.1,61.0,54.7,49.4,89,69,52,30.19,30.10,9,2,13,0.00
2013-3-10,75.8,70.8,66.8,62.6,57.8,53.8,77,64,55,30.16,30.06,8,2,11,0.00
2013-3-11,75.9,72.4,69.9,63.9,61.7,58.7,77,69,59,30.10,29.95,9,4,16,0.00
2013-3-12,78.5,74.4,70.9,70.9,66.9,63.1,84,78,68,30.00,29.91,13,4,16,0.00
2013-3-13,79.0,67.3,57.8,66.0,57.7,48.5,90,73,49,30.12,29.97,11,2,16,0.00
2013-3-14,74.5,62.0,54.4,53.3,49.0,41.9,87,65,33,30.20,30.08,11,3,18,0.00
2013-3-15,75.1,63.6,53.0,58.3,50.8,44.2,80,64,45,30.25,30.15,9,2,16,0.00
2013-3-16,73.6,65.2,52.9,57.6,54.5,50.3,95,70,52,30.19,30.09,9,2,12,0.00
2013-3-17,75.5,68.8,59.7,62.7,58.9,54.0,86,71,60,30.15,30.02,11,2,13,0.00
2013-3-18,79.0,73.2,68.4,70.4,66.5,61.9,94,80,72,30.07,29.96,13,3,17,0.05
2013-3-19,81.2,73.0,67.2,70.8,68.6,65.4,96,87,63,30.01,29.82,12,1,15,0.02
2013-3-20,78.9,71.4,63.3,70.9,66.2,60.2,98,84,62,29.98,29.80,8,2,12,0.01
2013-3-21,76.4,67.2,57.0,61.5,57.0,50.8,91,71,43,29.94,29.83,10,2,12,0.00
2013-3-22,75.3,67.6,54.0,70.6,60.2,50.9,93,78,62,30.01,29.90,9,2,12,0.00
2013-3-23,82.1,76.9,70.7,75.7,72.9,68.9,97,88,75,29.98,29.81,12,3,17,0.01
2013-3-24,89.9,80.8,74.9,74.5,72.6,70.6,95,78,54,29.89,29.68,12,3,17,0.01
2013-3-25,82.4,75.1,65.8,73.3,61.8,42.4,94,66,36,29.99,29.74,12,2,13,0.01
2013-3-26,71.2,62.3,52.3,44.9,39.8,33.1,61,44,25,30.21,29.98,13,4,19,0.00
2013-3-27,71.3,58.1,46.0,50.7,43.5,34.9,72,59,41,30.24,30.16,11,2,14,0.00
2013-3-28,73.6,62.0,51.3,53.2,46.2,35.4,77,58,34,30.26,30.16,8,2,12,0.00
2013-3-29,77.8,66.1,55.5,57.5,51.1,41.5,73,59,45,30.28,30.20,12,2,13,0.00
2013-3-30,75.2,69.4,63.7,56.4,53.9,51.2,68,58,45,30.26,30.16,7,2,13,0.00
2013-3-31,78.2,73.0,68.8,67.9,63.0,55.0,82,71,61,30.19,30.05,9,4,15,0.00
2013-4-1,88.8,76.4,72.0,72.4,68.2,62.6,87,77,48,30.05,29.94,11,3,17,0.00
2013-4-2,81.9,73.8,66.3,69.2,66.6,63.9,96,79,62,30.08,29.98,7,1,10,0.00
2013-4-3,80.5,76.4,72.1,71.3,69.2,67.0,85,79,70,30.06,29.99,10,4,16,0.00
2013-4-4,81.2,75.6,67.8,74.2,70.7,65.1,96,85,77,30.04,29.90,13,4,22,1.45
2013-4-5,74.1,68.7,65.3,71.4,66.2,63.8,97,92,81,29.98,29.82,8,1,12,0.69
2013-4-6,79.8,69.3,59.1,69.0,62.5,57.4,95,80,64,30.08,29.92,12,3,15,0.12
2013-4-7,78.4,73.4,71.1,67.3,64.3,62.0,81,73,65,30.13,30.01,8,2,13,0.02
2013-4-8,80.2,74.4,65.6,66.1,63.2,60.2,83,68,59,30.13,30.04,7,1,10,0.00
2013-4-9,80.6,76.1,73.6,70.4,67.5,65.3,79,75,68,30.15,30.04,8,2,12,0.00
2013-4-10,82.2,77.7,74.2,74.2,71.1,66.8,85,80,75,30.10,29.99,10,3,15,0.00
2013-4-11,81.6,78.2,76.1,74.1,72.3,70.8,88,82,76,30.02,29.90,14,6,17,0.00
2013-4-12,84.4,79.6,77.6,77.6,75.1,73.1,91,86,80,29.94,29.86,13,5,17,0.01
2013-4-13,84.0,78.4,75.3,75.8,73.6,69.6,91,85,67,29.98,29.87,9,2,14,0.01
2013-4-14,84.4,79.7,76.2,76.4,74.7,73.2,93,85,75,29.96,29.89,13,3,15,0.01
2013-4-15,85.1,78.0,71.0,78.2,74.0,68.7,95,88,74,30.06,29.92,9,2,13,0.36
2013-4-16,85.8,78.0,71.1,77.8,73.7,69.9,98,87,73,30.11,30.01,9,2,13,0.05
2013-4-17,84.9,78.9,75.4,72.8,71.0,68.6,87,77,64,30.10,30.01,8,2,13,0.01
2013-4-18,84.3,79.8,76.3,75.3,72.1,69.2,84,77,70,30.05,29.97,10,4,12,0.00
2013-4-19,85.1,81.0,78.2,76.0,73.5,71.2,86,78,67,30.05,29.96,13,5,17,0.00
2013-4-20,84.8,77.4,70.7,77.7,73.8,67.6,97,89,71,30.07,29.93,8,2,15,1.96
2013-4-21,82.1,76.8,72.1,75.0,72.7,69.3,96,87,71,30.09,29.98,10,2,14,0.02
2013-4-22,80.9,74.2,69.4,73.3,70.6,68.0,96,89,70,30.04,29.92,7,1,11,0.34
2013-4-23,84.3,75.3,67.6,72.8,67.6,62.0,97,79,59,30.08,29.94,12,3,17,0.00
2013-4-24,82.5,77.1,72.9,69.7,65.4,61.8,74,67,60,30.13,30.02,7,1,12,0.00
2013-4-25,83.4,76.7,72.1,67.9,63.8,61.8,72,65,54,30.19,30.07,10,2,11,0.00
2013-4-26,83.3,76.5,71.1,70.0,65.4,61.5,75,69,60,30.22,30.10,10,2,15,0.00
2013-4-27,82.4,76.9,72.8,69.1,66.0,62.0,79,69,59,30.20,30.07,10,2,15,0.00
2013-4-28,81.7,77.2,74.0,68.5,65.5,62.7,78,67,58,30.11,29.99,9,2,13,0.00
2013-4-29,81.4,77.7,75.4,72.2,69.3,64.6,82,75,67,30.03,29.93,11,4,15,0.00
2013-4-30,83.0,76.6,69.4,73.5,70.8,67.2,96,82,71,30.00,29.92,9,2,11,1.54
2013-5-1,82.8,76.2,70.3,74.8,71.7,68.2,96,86,74,29.99,29.90,9,1,10,0.47
2013-5-2,78.5,73.6,68.4,73.7,70.1,66.3,97,89,76,29.94,29.78,14,2,22,5.04
2013-5-3,87.3,75.0,68.4,73.3,69.8,67.2,96,85,54,29.81,29.68,6,1,12,0.65
2013-5-4,88.6,77.0,68.0,73.0,68.8,65.6,97,78,53,29.79,29.68,9,1,13,0.00
2013-5-5,84.1,74.4,64.5,69.6,63.5,55.5,92,71,44,29.92,29.75,8,1,14,0.00
2013-5-6,82.8,71.7,60.0,66.6,61.1,55.6,93,71,43,30.01,29.91,8,1,11,0.00
2013-5-7,83.7,73.1,63.2,68.2,62.9,58.9,90,71,48,30.06,29.96,8,1,11,0.00
2013-5-8,81.5,73.4,61.9,68.3,63.3,59.1,93,72,48,30.13,30.04,6,1,9,0.00
2013-5-9,84.0,76.5,65.2,74.7,68.5,58.9,87,77,65,30.14,30.06,8,1,10,0.00
2013-5-10,84.9,79.9,72.8,75.3,72.9,69.6,93,80,62,30.13,30.02,9,2,13,0.00
2013-5-11,84.8,79.0,72.6,76.8,73.8,69.5,96,85,71,30.07,29.98,12,2,14,0.45
2013-5-12,85.0,77.9,71.6,76.3,73.1,69.3,96,86,70,30.06,29.95,12,2,13,0.53
2013-5-13,88.6,78.0,70.6,75.6,71.8,68.6,98,82,60,30.07,29.98,12,1,12,0.01
2013-5-14,82.9,77.5,73.3,68.8,63.3,57.8,75,62,51,30.17,30.05,13,3,14,0.00
2013-5-15,82.1,76.8,72.6,66.0,62.4,58.0,71,61,50,30.18,30.08,7,2,13,0.00
2013-5-16,82.2,77.0,72.9,67.3,63.6,58.4,71,63,54,30.11,30.03,7,2,10,0.00
2013-5-17,83.8,79.4,74.6,74.8,71.1,64.8,89,76,68,30.08,30.00,8,2,10,0.00
2013-5-18,83.5,79.9,75.0,75.2,72.6,70.3,91,79,71,30.10,30.02,9,3,13,0.00
2013-5-19,83.8,79.9,76.9,73.0,70.9,68.2,81,74,65,30.09,29.99,10,2,10,0.00
2013-5-20,82.5,77.3,71.5,74.8,72.7,69.2,96,86,77,30.07,29.96,10,2,14,1.21
2013-5-21,80.8,76.6,72.2,75.6,71.6,69.2,95,85,76,30.04,29.92,9,2,13,0.26
2013-5-22,83.2,77.1,71.9,76.1,72.8,67.3,96,87,68,29.96,29.89,8,2,16,0.26
2013-5-23,94.2,82.0,73.2,77.6,74.7,69.2,96,80,48,30.00,29.90,9,1,10,0.00
2013-5-24,90.2,82.1,75.5,78.7,75.6,72.7,95,81,61,30.05,29.93,8,1,10,0.00
2013-5-25,86.7,80.9,74.6,75.2,69.6,65.3,87,69,56,30.15,30.03,10,2,15,0.00
2013-5-26,85.2,79.7,75.7,71.2,67.4,63.5,77,66,57,30.16,30.09,7,2,14,0.00
2013-5-27,85.6,80.1,76.2,75.6,71.6,65.6,82,75,68,30.15,30.06,10,2,14,0.00
2013-5-28,82.9,78.6,75.0,75.0,73.1,71.1,93,83,75,30.09,30.03,12,4,17,0.33
2013-5-29,79.9,76.6,72.8,74.6,72.4,68.8,95,87,76,30.08,30.01,13,4,22,1.40
2013-5-30,82.9,78.9,74.9,75.9,73.1,71.1,94,83,75,30.06,29.99,11,5,18,0.28
2013-5-31,83.8,79.3,75.6,77.4,74.5,72.2,92,85,76,30.05,29.99,13,3,15,0.15
2013-6-1,84.3,77.8,74.0,78.1,74.9,72.5,96,91,79,30.02,29.95,7,1,11,0.72
2013-6-2,85.4,78.4,72.2,77.9,74.2,71.3,98,87,72,30.00,29.91,7,1,12,0.01
2013-6-3,85.1,78.1,73.0,77.8,74.3,71.0,97,88,72,30.02,29.91,8,1,11,0.97
2013-6-4,83.3,78.1,72.3,78.3,74.9,71.1,98,90,76,30.04,29.95,5,0,8,0.24
2013-6-5,84.0,81.5,79.9,78.1,76.7,74.7,89,86,81,30.01,29.89,6,2,10,0.00
2013-6-6,86.2,80.5,75.4,80.1,76.8,72.6,96,89,76,29.91,29.78,13,5,22,0.51
2013-6-7,89.7,77.8,73.9,80.0,74.6,71.8,98,90,68,30.00,29.83,10,1,15,1.06
2013-6-8,86.1,80.4,74.2,81.0,76.6,72.7,98,89,75,30.09,29.95,9,2,12,0.09
2013-6-9,86.3,82.7,80.2,77.9,76.1,74.5,86,81,73,30.10,30.03,9,3,13,0.00
2013-6-10,86.7,83.2,80.7,79.4,77.1,75.5,87,82,73,30.09,30.00,9,2,12,0.00
2013-6-11,86.8,82.4,78.8,78.5,77.0,73.6,91,84,70,30.09,30.00,9,2,12,0.00
2013-6-12,85.4,81.1,76.8,78.6,76.7,74.0,94,87,78,30.07,30.00,4,0,8,0.00
2013-6-13,88.2,80.8,74.8,77.7,75.1,69.6,98,84,58,30.05,29.94,9,1,11,0.00
2013-6-14,92.9,80.4,74.2,78.8,74.4,72.0,93,83,58,29.97,29.87,8,1,16,0.19
2013-6-15,87.3,81.3,74.3,79.2,75.8,73.1,97,84,73,30.05,29.92,5,1,9,0.00
2013-6-16,88.0,82.4,74.4,79.6,76.4,72.6,97,82,72,30.08,30.01,7,2,10,0.00
2013-6-17,88.3,84.3,81.3,78.5,76.6,74.3,83,78,69,30.08,30.00,9,2,11,0.00
2013-6-18,87.8,84.2,81.2,78.3,76.7,75.2,84,79,71,30.07,29.98,8,3,12,0.00
2013-6-19,88.3,84.0,79.2,79.2,76.8,75.3,91,79,68,30.04,29.98,10,2,14,0.00
2013-6-20,87.0,81.1,72.3,78.2,75.1,68.2,96,82,71,30.08,30.01,8,2,13,0.59
2013-6-21,87.9,84.0,81.3,77.1,75.4,72.7,84,75,66,30.11,30.02,7,2,12,0.00
2013-6-22,88.3,83.9,80.4,77.8,75.4,73.0,83,76,68,30.09,30.02,5,1,10,0.41
2013-6-23,87.4,83.4,77.4,78.1,74.9,71.7,87,76,66,30.12,30.04,9,3,13,0.00
2013-6-24,88.0,83.7,81.0,78.2,75.3,73.3,83,76,68,30.16,30.07,9,2,11,0.00
2013-6-25,87.7,83.4,80.8,79.7,76.3,73.9,85,79,73,30.12,30.03,10,2,15,0.00
2013-6-26,87.4,83.8,78.7,77.6,75.9,74.5,90,78,69,30.08,30.00,9,3,12,0.00
2013-6-27,85.7,83.0,81.1,77.6,75.7,71.8,84,79,70,30.05,29.95,7,2,9,0.00
2013-6-28,87.1,82.3,76.0,78.4,75.7,72.9,94,81,71,29.99,29.86,9,2,12,0.00
2013-6-29,87.9,81.5,74.0,79.0,75.9,70.9,97,84,71,29.91,29.83,11,2,14,0.67
2013-6-30,87.7,82.0,77.0,78.7,75.7,73.1,93,82,68,29.94,29.85,13,3,17,0.10
2013-7-1,87.2,82.7,78.6,79.4,76.6,73.9,91,82,73,30.02,29.91,10,3,14,0.05
2013-7-2,87.7,82.9,78.1,80.0,77.2,74.1,92,83,76,30.10,29.97,9,3,13,0.06
2013-7-3,87.5,82.6,78.1,78.7,76.3,70.7,91,81,72,30.12,30.04,11,4,18,0.00
2013-7-4,87.7,83.7,76.4,78.2,76.1,71.8,91,78,70,30.15,30.06,10,4,14,0.00
2013-7-5,86.1,82.4,77.3,78.1,76.1,73.6,92,81,74,30.12,30.04,11,4,16,0.12
2013-7-6,87.5,83.4,80.0,78.6,75.9,74.1,89,78,69,30.11,30.02,10,3,12,0.04
2013-7-7,88.4,83.9,80.9,79.0,76.0,73.9,83,77,70,30.09,30.01,9,2,14,0.00
2013-7-8,87.9,83.2,78.0,78.0,74.7,72.3,85,76,65,30.14,30.06,7,2,18,0.04
2013-7-9,87.3,81.8,78.3,76.5,73.7,70.6,85,77,63,30.13,30.04,10,1,11,0.00
2013-7-10,83.9,78.8,72.6,77.7,74.3,70.3,97,87,79,30.08,29.99,7,1,12,0.83
2013-7-11,86.9,83.3,80.0,78.2,76.3,74.0,86,80,71,30.03,29.94,9,2,11,0.00
2013-7-12,88.6,81.6,76.2,78.6,74.8,70.9,94,80,65,29.97,29.90,7,1,12,0.04
2013-7-13,85.0,75.3,71.7,76.9,72.8,69.6,97,92,71,30.02,29.91,5,0,12,5.84
2013-7-14,86.7,79.1,72.5,77.3,73.8,70.8,97,85,67,30.08,29.98,7,1,11,0.59
2013-7-15,87.5,80.2,73.3,78.1,74.3,71.5,96,83,68,30.08,30.00,5,0,11,0.08
2013-7-16,83.2,78.6,73.9,75.5,72.8,70.3,91,83,71,30.14,30.03,11,1,22,0.31
2013-7-17,79.8,76.3,71.9,75.7,73.4,68.8,96,91,81,30.16,30.04,8,0,14,2.68
2013-7-18,82.0,75.7,72.4,78.1,73.8,70.5,97,94,80,30.12,30.05,7,0,10,1.38
2013-7-19,86.7,81.0,73.0,79.7,76.6,71.8,98,87,76,30.12,30.04,8,1,12,0.00
2013-7-20,87.0,82.0,75.8,79.9,77.0,71.8,93,85,76,30.11,30.03,8,1,13,0.00
2013-7-21,87.2,82.0,76.7,80.1,77.2,74.2,95,86,78,30.14,30.05,7,1,10,0.00
2013-7-22,87.0,83.3,80.3,78.3,76.7,75.3,89,81,73,30.14,30.06,8,1,10,0.00
2013-7-23,88.1,82.6,76.0,80.0,76.5,73.8,95,82,66,30.10,29.96,9,1,11,0.47
2013-7-24,93.3,83.1,76.7,80.2,76.3,71.2,96,81,56,30.02,29.90,7,0,12,0.00
2013-7-25,95.2,85.1,74.2,78.8,75.1,72.0,95,73,53,30.01,29.91,3,0,7,0.00
2013-7-26,95.7,83.2,76.7,79.9,76.4,73.9,94,81,54,30.02,29.92,6,0,13,0.08
2013-7-27,85.4,79.9,77.0,80.2,76.1,73.9,96,88,79,30.00,29.93,4,0,12,0.00
2013-7-28,87.9,82.3,77.2,80.5,76.4,74.0,95,83,70,30.07,29.95,6,0,10,0.00
2013-7-29,89.2,83.8,77.5,81.1,77.6,74.7,93,82,72,30.13,30.01,8,0,12,0.00
2013-7-30,89.3,84.4,76.4,81.3,78.3,74.2,95,82,73,30.15,30.07,4,0,11,0.16
2013-7-31,89.0,85.0,81.7,80.0,77.1,74.0,87,77,69,30.10,30.00,9,1,11,0.00
2013-8-1,89.5,84.3,80.7,78.4,75.8,73.8,83,76,66,30.05,29.94,7,1,10,0.00
2013-8-2,89.7,81.8,75.3,78.6,75.4,72.5,95,82,61,30.05,29.91,5,0,11,0.24
2013-8-3,87.0,78.5,73.1,79.7,75.4,70.3,96,90,70,30.12,30.01,10,0,14,0.28
2013-8-4,89.4,80.5,75.4,79.6,75.9,73.8,97,87,67,30.10,29.98,9,1,10,0.00
2013-8-5,92.7,81.7,76.8,81.3,76.6,73.4,95,85,66,30.03,29.94,5,0,10,0.20
2013-8-6,88.3,81.8,75.9,79.8,76.3,73.1,97,84,73,29.98,29.88,7,0,10,0.00
2013-8-7,87.3,83.6,77.5,78.8,76.7,73.4,94,80,73,29.97,29.89,9,1,12,0.00
2013-8-8,89.2,85.9,82.9,78.8,76.7,72.3,83,74,64,30.01,29.92,10,2,13,0.00
2013-8-9,86.4,82.5,76.9,78.5,75.2,71.2,86,79,70,30.05,29.94,11,2,15,0.24
2013-8-10,89.1,84.8,81.2,79.3,77.1,75.3,85,78,66,30.11,30.02,7,2,11,0.00
2013-8-11,89.5,85.3,82.4,80.2,77.6,75.6,84,78,70,30.13,30.06,8,1,10,0.00
2013-8-12,90.2,84.5,80.5,79.5,76.2,72.6,83,76,67,30.10,30.00,6,0,10,0.00
2013-8-13,88.3,84.7,82.4,79.0,76.6,74.2,84,77,67,30.04,29.95,8,1,11,0.00
2013-8-14,88.4,84.6,82.0,78.3,76.2,74.6,83,76,68,30.02,29.93,7,1,13,0.00
2013-8-15,84.6,81.3,75.3,78.1,76.4,73.6,95,85,76,30.05,29.96,8,0,10,0.51
2013-8-16,89.1,85.2,78.6,80.6,78.6,75.9,95,81,71,30.05,29.97,6,1,9,0.00
2013-8-17,89.2,85.6,83.4,80.8,78.6,76.6,85,80,71,30.08,30.00,8,1,10,0.00
2013-8-18,89.4,85.1,81.9,81.3,78.1,74.7,85,80,72,30.07,29.99,8,1,12,0.00
2013-8-19,89.2,85.1,81.4,80.3,77.9,76.3,88,79,69,30.06,29.96,9,1,11,0.00
2013-8-20,89.6,84.8,78.7,79.6,77.1,73.4,92,78,68,30.06,29.98,7,0,12,0.08
2013-8-21,89.2,84.0,78.8,81.1,78.2,75.2,93,83,73,30.07,29.99,9,1,16,0.08
2013-8-22,89.4,84.7,75.8,80.8,78.2,73.2,97,81,73,30.07,29.95,12,1,25,0.28
2013-8-23,89.2,84.0,80.0,80.3,77.2,74.4,88,80,71,30.00,29.93,10,0,12,0.04
2013-8-24,89.0,84.0,76.2,79.7,76.8,73.0,93,79,70,30.10,29.96,7,0,12,0.28
2013-8-25,85.7,81.0,75.4,79.1,76.2,73.2,95,86,75,30.14,30.02,3,0,8,0.43
2013-8-26,89.4,82.4,77.6,79.9,75.6,73.4,89,80,69,30.11,30.01,7,0,14,0.00
2013-8-27,89.0,80.0,74.4,79.0,74.2,71.9,95,83,61,30.04,29.96,4,0,7,0.08
2013-8-28,85.9,81.6,76.7,78.1,75.2,72.7,96,81,70,30.04,29.94,5,0,9,0.55
2013-8-29,88.5,82.7,74.4,80.7,76.4,71.9,94,82,73,30.02,29.92,6,0,10,0.00
2013-8-30,87.6,82.6,75.5,78.1,75.4,71.5,96,79,61,30.00,29.89,8,1,13,0.00
2013-8-31,87.0,80.4,75.7,78.1,75.3,72.7,95,85,74,29.98,29.91,8,0,9,0.00
2013-9-1,88.3,80.5,74.5,80.2,76.1,73.1,97,87,74,29.99,29.92,5,0,9,0.00
2013-9-2,89.0,78.6,73.8,80.2,75.4,71.2,97,90,72,30.02,29.93,6,0,7,0.43
2013-9-3,89.8,80.7,72.4,82.0,76.4,71.5,98,88,75,30.02,29.92,4,0,8,0.00
2013-9-4,85.6,82.5,78.2,80.2,77.7,75.5,95,85,79,30.06,29.94,5,0,11,0.71
2013-9-5,89.7,84.3,80.9,81.5,77.9,76.2,91,82,73,30.06,29.98,5,0,8,0.00
2013-9-6,89.4,84.9,81.9,81.0,78.1,75.6,88,81,71,30.03,29.92,7,0,9,0.00
2013-9-7,85.9,80.3,75.0,78.8,75.5,70.9,92,86,76,29.97,29.89,5,0,12,0.00
2013-9-8,89.7,80.2,73.5,79.5,74.9,72.0,97,85,65,29.94,29.84,5,0,7,0.00
2013-9-9,89.9,82.4,75.0,79.5,75.7,72.3,93,81,66,29.99,29.89,6,0,10,0.00
2013-9-10,89.5,82.0,77.3,79.9,76.4,73.3,94,83,70,30.03,29.94,9,0,14,0.31
2013-9-11,86.7,81.7,78.7,80.4,76.0,72.8,93,83,75,30.05,29.95,5,0,13,0.12
2013-9-12,84.6,80.6,76.8,78.8,76.1,73.3,95,86,79,30.01,29.88,4,0,9,0.04
2013-9-13,87.9,80.9,73.9,78.5,75.6,72.6,97,85,69,29.90,29.80,7,0,8,0.00
2013-9-14,88.5,83.2,75.7,78.7,76.3,73.8,96,80,70,29.96,29.82,6,0,9,0.00
2013-9-15,85.2,82.1,79.5,79.5,77.0,73.5,91,85,77,30.03,29.92,9,1,17,0.08
2013-9-16,85.8,81.9,77.6,79.9,76.6,73.9,91,84,76,30.03,29.95,11,0,13,0.16
2013-9-17,86.2,81.1,77.2,80.4,76.2,73.3,94,85,76,30.02,29.90,7,0,12,0.04
2013-9-18,85.6,79.8,74.2,79.5,75.7,71.3,97,87,77,30.00,29.90,5,0,8,3.87
2013-9-19,89.4,80.3,73.9,80.0,75.4,72.1,97,86,70,29.99,29.91,12,0,12,0.20
2013-9-20,88.6,82.0,76.8,75.5,72.6,69.5,93,74,59,29.99,29.88,10,0,14,0.08
2013-9-21,86.5,81.9,78.3,77.4,74.2,71.7,84,78,68,29.90,29.77,7,0,8,0.00
2013-9-22,88.7,83.3,77.7,78.8,76.7,74.7,92,81,68,29.86,29.75,8,1,13,0.00
2013-9-23,87.7,80.7,76.0,80.5,77.1,71.8,96,89,73,29.97,29.85,10,0,21,0.51
2013-9-24,90.6,81.6,76.2,81.8,76.8,71.8,98,86,65,29.96,29.86,9,1,13,0.08
2013-9-25,90.0,79.9,73.8,80.6,75.1,70.2,95,86,68,29.90,29.80,3,0,9,0.12
2013-9-26,91.4,80.6,75.3,82.7,77.0,74.0,97,89,67,29.86,29.79,1,0,6,0.08
2013-9-27,91.9,80.9,74.6,77.5,74.8,71.9,98,83,54,29.90,29.81,9,0,12,0.00
2013-9-28,88.7,79.9,73.0,78.1,74.2,71.2,97,84,67,29.94,29.86,9,0,16,0.24
2013-9-29,87.3,81.7,76.1,75.5,72.1,70.3,88,73,61,29.96,29.87,5,0,9,0.00
2013-9-30,87.8,82.4,77.4,75.6,72.7,70.0,82,73,62,29.99,29.89,5,0,8,0.00
2013-10-1,88.7,83.5,80.4,77.8,74.1,71.7,81,74,66,30.02,29.94,6,0,13,0.00
2013-10-2,85.8,82.1,80.5,76.6,74.7,73.3,83,78,72,30.03,29.95,7,0,11,0.00
2013-10-3,87.8,82.3,78.2,78.6,74.9,72.4,87,79,70,30.04,29.94,5,0,9,0.00
2013-10-4,88.1,82.2,79.3,75.6,73.3,70.1,83,75,63,30.05,29.97,5,0,9,0.00
2013-10-5,88.7,81.2,71.7,77.2,73.0,69.0,93,77,64,30.02,29.92,6,0,7,0.00
2013-10-6,87.9,83.0,78.7,77.3,73.6,70.8,88,74,61,29.96,29.86,7,0,8,0.00
2013-10-7,90.2,79.5,73.5,78.0,73.5,70.7,96,83,56,29.89,29.80,9,1,14,0.59
2013-10-8,89.9,79.8,75.6,80.0,75.9,71.4,96,88,68,29.92,29.84,8,0,11,0.16
2013-10-9,87.7,77.8,70.3,78.9,73.4,68.7,97,87,73,29.98,29.89,7,0,13,0.00
2013-10-10,88.1,79.7,71.9,78.5,73.3,69.8,97,82,63,30.00,29.93,8,1,12,0.20
2013-10-11,87.5,79.9,71.2,74.4,70.0,66.8,91,72,60,30.00,29.93,7,0,13,0.00
2013-10-12,87.0,78.5,68.2,73.3,69.3,65.6,95,74,57,30.02,29.94,5,0,9,0.00
2013-10-13,87.5,79.7,72.8,73.7,68.7,65.0,91,70,51,30.04,29.95,1,0,8,0.00
2013-10-14,87.2,79.2,69.8,74.5,69.8,67.0,92,73,59,30.01,29.90,0,0,0,0.00
2013-10-15,87.8,79.6,70.9,75.6,71.3,68.0,94,77,64,29.94,29.86,6,0,9,0.00
2013-10-16,85.3,78.3,73.0,76.5,71.2,68.2,94,79,66,29.95,29.87,3,0,8,0.08
2013-10-17,86.2,80.0,71.9,75.6,72.5,69.0,94,78,66,29.96,29.88,7,0,8,0.00
2013-10-18,86.5,81.1,73.2,75.9,73.0,70.0,92,77,68,29.98,29.89,5,0,9,0.00
2013-10-19,86.2,82.4,78.8,77.4,74.1,71.5,81,76,70,29.96,29.87,7,1,10,0.00
2013-10-20,86.7,81.8,78.5,79.3,76.0,73.6,88,83,75,29.96,29.86,5,0,9,0.00
2013-10-21,87.2,83.2,80.2,78.3,76.5,74.0,88,80,73,30.00,29.90,7,1,10,0.00
2013-10-22,87.5,82.7,77.2,79.0,76.5,73.9,93,82,72,29.96,29.83,9,1,12,0.00
2013-10-23,90.1,80.8,75.5,77.5,74.3,69.7,94,81,61,29.94,29.81,6,0,14,0.16
2013-10-24,80.9,76.9,73.0,70.0,67.3,64.0,82,73,63,30.08,29.92,7,1,13,0.00
2013-10-25,84.7,78.0,71.1,69.2,65.6,62.9,81,66,54,30.13,30.04,12,2,17,0.00
2013-10-26,85.2,78.5,71.6,68.8,64.9,62.0,73,63,53,30.14,30.04,12,1,12,0.00
2013-10-27,84.5,75.2,66.1,68.8,64.4,60.6,83,70,55,30.08,30.01,6,0,11,0.00
2013-10-28,86.6,79.1,74.6,71.2,66.4,63.2,74,66,50,30.13,30.04,7,0,10,0.00
2013-10-29,86.9,80.0,75.5,73.6,68.7,65.6,76,69,60,30.16,30.07,10,1,14,0.00
2013-10-30,85.9,79.9,76.5,71.8,68.6,65.8,75,69,58,30.18,30.07,8,1,13,0.00
2013-10-31,85.4,80.6,77.9,74.2,71.6,67.0,82,74,64,30.10,29.99,9,1,11,0.00
2013-11-1,85.3,81.3,78.8,76.1,73.7,71.5,82,78,72,30.00,29.88,9,2,11,0.00
2013-11-2,90.1,79.7,71.2,74.3,71.1,66.0,97,77,46,29.93,29.80,5,0,13,0.00
2013-11-3,83.9,75.6,68.7,69.4,64.8,61.8,84,70,54,30.01,29.88,14,2,18,0.00
2013-11-4,83.3,77.4,74.8,70.7,65.8,58.9,77,68,51,30.06,29.99,15,3,18,0.00
2013-11-5,81.6,78.4,74.4,72.6,70.0,66.2,91,76,67,30.08,30.00,15,2,19,0.04
2013-11-6,85.5,79.7,75.5,73.3,70.9,68.9,81,75,61,30.05,29.98,9,1,16,0.00
2013-11-7,87.0,77.3,69.3,74.8,70.8,66.9,95,81,63,30.00,29.91,6,0,10,0.00
2013-11-8,86.4,77.3,71.6,75.7,71.8,68.5,94,84,63,30.02,29.92,11,2,17,0.24
2013-11-9,81.9,76.7,74.2,75.2,72.6,71.4,94,87,79,30.10,30.00,12,2,18,0.24
2013-11-10,83.9,79.3,77.4,74.1,71.5,68.9,84,77,69,30.11,30.03,10,1,14,0.00
2013-11-11,85.6,79.3,76.6,74.4,70.3,67.3,81,74,65,30.10,30.03,9,1,14,0.00
2013-11-12,85.7,78.5,71.9,73.0,69.8,68.0,91,75,62,30.07,29.96,5,0,10,0.00
2013-11-13,78.9,72.8,70.7,69.3,64.9,58.9,90,77,64,30.20,29.98,13,3,24,0.28
2013-11-14,77.1,72.9,70.2,64.8,60.5,56.5,73,65,59,30.23,30.12,12,2,19,0.00
2013-11-15,82.3,77.6,73.9,71.2,67.6,61.9,86,71,64,30.13,30.01,8,1,17,0.00
2013-11-16,81.1,78.4,72.4,73.2,70.1,64.0,88,76,67,30.09,30.00,11,2,14,0.00
2013-11-17,82.8,79.7,78.1,74.2,71.8,69.8,84,77,70,30.07,29.99,10,2,11,0.00
2013-11-18,82.8,78.4,75.2,74.8,72.1,70.8,90,81,70,30.02,29.91,5,0,7,0.00
2013-11-19,85.2,76.3,72.2,76.0,71.9,69.4,93,87,69,29.93,29.84,4,0,9,0.00
2013-11-20,85.7,77.2,70.0,77.1,72.4,68.5,97,86,74,30.05,29.91,5,0,9,0.00
2013-11-21,79.3,75.7,72.1,76.2,72.9,70.9,98,91,82,30.13,30.03,8,0,15,2.20
2013-11-22,82.4,77.7,73.5,74.1,71.8,70.0,94,82,73,30.14,30.06,9,2,15,0.08
2013-11-23,84.4,78.6,75.2,74.7,71.9,69.7,87,80,70,30.07,29.97,8,1,11,0.00
2013-11-24,83.5,74.7,67.7,71.9,68.6,64.2,96,82,64,30.13,29.97,16,2,21,0.51
2013-11-25,77.0,73.5,72.0,70.6,66.4,62.3,91,78,71,30.19,30.04,17,2,19,0.00
2013-11-26,81.1,77.6,73.3,75.7,73.2,69.7,92,86,80,30.04,29.82,13,4,19,0.04
2013-11-27,79.1,71.4,58.7,76.2,65.9,53.4,96,84,58,30.11,29.78,8,1,14,0.98
2013-11-28,74.8,63.8,49.0,64.6,55.2,46.2,91,74,60,30.23,30.11,9,1,13,0.00
2013-11-29,78.9,72.0,62.7,65.0,61.1,55.9,86,69,56,30.26,30.18,11,2,16,0.00
2013-11-30,77.7,71.7,63.0,70.6,64.5,60.0,91,78,68,30.20,30.09,9,1,18,0.08
2013-12-1,77.8,70.3,63.9,71.2,66.8,61.0,97,89,75,30.09,29.93,3,0,9,1.50
2013-12-2,74.8,67.6,60.4,68.2,64.6,58.7,98,91,70,29.93,29.82,3,0,7,0.04
2013-12-3,79.3,69.9,59.6,67.3,64.0,58.2,97,83,63,30.00,29.89,2,0,4,0.00
2013-12-4,81.1,73.5,65.0,70.3,66.7,63.4,97,80,67,30.08,29.98,6,0,9,0.00
2013-12-5,81.5,77.8,75.1,72.9,70.2,67.4,81,78,72,30.16,30.07,10,2,14,0.00
2013-12-6,81.8,78.2,76.2,71.8,70.3,67.8,83,77,69,30.18,30.08,10,3,13,0.00
2013-12-7,82.2,77.7,70.6,72.8,70.1,67.1,91,78,69,30.21,30.13,6,0,10,0.00
2013-12-8,82.4,78.0,71.6,72.6,70.3,67.3,92,78,66,30.20,30.11,10,2,14,0.04
2013-12-9,81.8,78.8,76.9,71.9,69.7,67.0,83,74,63,30.19,30.10,9,3,15,0.00
2013-12-10,82.3,78.5,75.0,74.1,72.0,70.0,90,81,74,30.15,30.07,9,2,13,0.00
2013-12-11,83.9,77.2,72.2,75.1,72.1,70.1,95,85,73,30.19,30.11,5,0,7,0.00
2013-12-12,79.6,73.2,69.8,73.1,66.9,61.3,96,81,68,30.19,30.12,11,1,18,0.00
2013-12-13,80.4,74.1,70.7,69.9,65.1,60.1,85,74,65,30.19,30.08,11,2,16,0.00
2013-12-14,81.1,78.2,75.8,73.4,71.6,68.9,87,80,74,30.10,29.98,12,4,16,0.00
2013-12-15,85.6,78.0,71.2,75.9,72.5,68.4,92,84,70,30.05,29.92,7,0,12,0.00
2013-12-16,75.3,68.9,62.4,68.3,62.4,59.0,91,80,67,30.14,30.02,7,0,8,0.00
2013-12-17,80.1,68.9,59.5,67.3,60.9,57.5,94,77,58,30.17,30.09,9,1,13,0.00
2013-12-18,80.0,67.7,59.6,63.3,59.0,56.5,93,75,54,30.23,30.13,6,0,11,0.00
2013-12-19,78.6,72.6,61.6,65.5,61.5,57.0,86,68,58,30.23,30.14,7,1,12,0.00
2013-12-20,81.2,77.3,74.4,71.7,68.6,64.3,79,74,68,30.18,30.09,8,1,11,0.00
2013-12-21,81.1,78.4,76.9,73.7,72.2,70.3,86,81,74,30.14,30.06,11,4,18,0.00
2013-12-22,82.1,79.0,77.4,74.2,73.0,71.7,86,82,75,30.15,30.08,12,4,15,0.00
2013-12-23,82.4,78.2,70.6,74.9,72.6,68.2,94,83,75,30.17,30.11,11,3,13,0.00
2013-12-24,85.2,73.1,67.2,74.0,68.2,63.4,97,85,62,30.17,30.07,13,1,13,0.00
2013-12-25,78.0,74.2,71.7,68.9,66.9,65.1,82,78,71,30.17,30.08,11,2,16,0.00
2013-12-26,79.8,75.9,73.5,72.8,69.9,67.9,89,82,75,30.16,30.06,9,1,12,0.04
2013-12-27,83.1,77.0,74.2,74.3,70.7,68.8,89,81,72,30.18,30.08,8,1,13,0.00
2013-12-28,81.0,77.3,75.2,73.3,71.4,68.8,89,82,75,30.17,30.02,11,2,15,0.00
2013-12-29,80.6,78.1,74.6,75.0,73.5,72.2,95,86,81,30.03,29.92,11,3,15,0.00
2013-12-30,80.9,73.9,70.0,73.6,70.6,66.0,97,90,75,30.13,29.97,5,0,9,0.00
2013-12-31,80.1,73.2,68.1,69.7,66.0,62.7,92,79,65,30.21,30.09,12,1,17,0.00
2014-1-1,80.0,76.7,73.7,74.6,71.4,65.3,91,84,73,30.18,30.03,9,1,13,0.04
2014-1-2,82.5,78.1,72.9,73.4,70.4,66.7,92,78,64,30.03,29.86,10,2,15,0.00